EDT,Max TemperatureF,Mean TemperatureF,Min TemperatureF,Max Dew PointF,MeanDew PointF,Min DewpointF,Max Humidity, Mean Humidity, Min Humidity, Max Sea Level PressureIn, Mean Sea Level PressureIn, Min Sea Level PressureIn, Max VisibilityMiles, Mean VisibilityMiles, Min VisibilityMiles, Max Wind SpeedMPH, Mean Wind SpeedMPH, Max Gust SpeedMPH,PrecipitationIn, CloudCover, Events, WindDirDegrees
2013-5-1,69,63,57,61,55,52,100,79,53,30.26,30.20,30.15,10,10,10,15,8,21,0.00,5,,45
2013-5-2,69,64,60,63,57,54,100,80,60,30.25,30.21,30.17,10,10,5,17,11,23,0.00,7,Rain,53
2013-5-3,66,60,55,61,55,52,100,84,68,30.18,30.12,30.06,10,9,2,18,12,26,0.00,6,Rain,63
2013-5-4,60,56,53,59,51,43,100,80,59,30.06,30.00,29.91,10,9,5,21,14,28,0.00,6,Rain,68
2013-5-5,69,62,55,68,59,55,100,95,60,29.92,29.85,29.81,10,8,0,20,12,29,0.00,7,Fog-Rain-Thunderstorm,92
2013-5-6,69,60,50,61,48,41,100,72,37,29.98,29.91,29.85,10,10,5,13,7,18,0.00,4,,239
2013-5-7,69,58,48,57,49,45,100,74,43,30.02,29.96,29.92,10,10,7,10,2,,0.00,5,Rain,253
2013-5-8,80,65,50,55,50,45,100,63,30,30.08,30.03,29.98,10,10,7,15,6,22,0.00,2,,240
2013-5-9,84,70,55,57,52,46,100,54,27,30.14,30.10,30.05,10,10,10,10,4,18,0.00,1,,274
2013-5-10,86,72,57,61,56,50,100,63,30,30.13,30.08,30.01,10,10,10,16,3,23,0.00,1,,204
2013-5-11,80,71,62,61,59,55,94,63,45,30.05,29.98,29.91,10,10,10,15,7,21,0.00,2,,227
2013-5-12,77,66,55,64,47,32,100,52,21,30.09,29.98,29.90,10,10,10,18,6,26,0.00,1,,286
2013-5-13,71,60,48,39,34,28,66,43,20,30.22,30.15,30.08,10,10,10,13,5,20,0.00,0,,324
2013-5-14,77,60,44,45,35,30,71,40,19,30.31,30.24,30.18,10,10,10,12,5,,0.00,0,,214
2013-5-15,89,74,59,54,49,41,59,43,26,30.18,30.12,30.03,10,10,10,16,8,24,0.00,0,,230
2013-5-16,82,72,62,64,56,52,88,56,35,30.12,30.07,29.94,10,10,10,12,6,16,0.00,0,,235
2013-5-17,87,74,60,61,56,48,100,59,27,30.16,30.11,30.07,10,10,10,13,3,20,0.00,1,,214
2013-5-18,80,73,66,66,61,55,100,70,48,30.18,30.14,30.10,10,10,10,10,6,,0.00,4,Rain-Thunderstorm,185
2013-5-19,78,73,68,72,66,61,100,84,54,30.16,30.12,30.08,10,10,7,10,5,,0.00,6,Rain-Thunderstorm,177
2013-5-20,84,76,68,72,66,59,100,78,42,30.16,30.11,30.06,10,9,4,9,4,,0.00,4,,193
2013-5-21,86,75,64,73,67,59,100,86,48,30.10,30.06,30.00,10,7,0,38,3,52,0.00,4,Fog-Rain-Thunderstorm,200
2013-5-22,86,73,60,73,64,59,100,79,42,30.07,30.02,29.93,10,7,0,10,7,,0.00,3,Fog-Rain,164
2013-5-23,84,76,68,70,64,54,100,73,37,30.00,29.97,29.91,10,10,5,18,5,22,0.00,4,Rain,243
2013-5-24,80,70,59,55,44,23,77,43,15,30.22,30.06,29.95,10,10,10,18,8,26,0.00,0,,315
2013-5-25,78,61,44,48,38,27,81,44,18,30.36,30.27,30.22,10,10,10,13,3,,0.00,0,,331
2013-5-26,82,66,51,52,46,41,100,51,23,30.31,30.24,30.20,10,10,10,12,3,,0.00,0,,40
2013-5-27,86,70,55,59,52,48,100,52,27,30.29,30.23,30.18,10,10,10,10,5,16,0.00,1,,163
2013-5-28,86,73,60,66,58,52,100,62,35,30.28,30.24,30.18,10,10,10,10,6,,0.00,1,,160
2013-5-29,86,72,59,66,58,54,100,64,33,30.30,30.24,30.19,10,10,7,12,5,16,0.00,1,,139
2013-5-30,89,74,60,68,61,54,100,66,31,30.31,30.25,30.18,10,10,7,12,5,,0.00,2,,138
2013-5-31,89,78,68,72,64,55,100,69,31,30.28,30.21,30.14,10,9,0,13,5,16,0.00,4,Fog,150